Weather History for Emporia, VA

Change the Weather History Date:

Wednesday, January 30, 2013

  Actual Average Record
Temperature  
Mean Temperature 64 °F -  
Max Temperature 71 °F 52 °F 71 °F (1989)
Min Temperature 57 °F 25 °F -4 °F (2014)
Degree Days  
Heating Degree Days 1    
Growing Degree Days 14 (Base 50)    
Moisture  
Dew Point 59 °F    
Average Humidity 80    
Maximum Humidity 100    
Minimum Humidity 64    
Precipitation  
Precipitation 0.00 in - - ()
Sea Level Pressure  
Sea Level Pressure 29.82 in    
Wind  
Wind Speed 10 mph (SSE)    
Max Wind Speed 21 mph    
Max Gust Speed 34 mph    
Visibility 10 miles    
Events Rain    
Averages and records for this station are not official NWS values.
T = Trace of Precipitation, MM = Missing Value Source: NWS Daily Summary

Daily Weather History Graph

Daily Weather History Graph

Search for Another Location

Airport:

Trip Planner

Search our weather history database for the weather conditions in past years. The results will help you decide how hot, cold, wet, or windy it might be!

Date:

Astronomy

Jan. 30, 2013 Rise Set
Actual Time 7:13 AM EST 5:33 PM EST
Civil Twilight 6:45 AM EST 6:01 PM EST
Nautical Twilight 6:14 AM EST 6:32 PM EST
Astronomical Twilight 5:44 AM EST 7:02 PM EST
Moon 9:22 PM EST (1/30) 8:47 AM EST (1/30)
Length of Visible Light 11h 15m
Length of Day
10h 20m
Waning Gibbous, 88% of the Moon is Illuminated
Jan 30
Waning Gibbous
Feb 3
Last Quarter
Feb 10
New
Feb 17
First Quarter
Feb 25
Full

Hourly Weather History & Observations

Time (EST) Temp. Dew Point Humidity Pressure Visibility Wind Dir Wind Speed Gust Speed Precip Events Conditions
12:15 AM 57.2 °F 53.6 °F 88% 30.08 in 10.0 mi SE 4.6 mph - N/A   Scattered Clouds
12:35 AM 57.2 °F 53.6 °F 88% 30.07 in 10.0 mi SSE 3.5 mph - N/A   Clear
12:55 AM 59.0 °F 53.6 °F 82% 30.06 in 10.0 mi SSE 6.9 mph - N/A   Clear
1:15 AM 59.0 °F 55.4 °F 88% 30.06 in 10.0 mi SSE 5.8 mph - N/A   Mostly Cloudy
1:35 AM 60.8 °F 55.4 °F 82% 30.05 in 10.0 mi SSE 6.9 mph - N/A   Scattered Clouds
1:55 AM 60.8 °F 55.4 °F 82% 30.04 in 10.0 mi South 9.2 mph - N/A   Clear
2:15 AM 60.8 °F 55.4 °F 82% 30.04 in 10.0 mi South 6.9 mph - N/A   Clear
2:35 AM 60.8 °F 55.4 °F 82% 30.04 in 10.0 mi South 11.5 mph 16.1 mph N/A   Clear
2:55 AM 60.8 °F 55.4 °F 82% 30.03 in 10.0 mi South 8.1 mph - N/A   Clear
3:15 AM 59.0 °F 57.2 °F 94% 30.02 in 10.0 mi SSE 6.9 mph - N/A   Scattered Clouds
3:35 AM 59.0 °F 55.4 °F 88% 30.02 in 10.0 mi SSE 6.9 mph - N/A   Clear
3:55 AM 59.0 °F 57.2 °F 94% 30.01 in 10.0 mi SSE 8.1 mph - N/A   Clear
4:15 AM 59.0 °F 57.2 °F 94% 30.01 in 10.0 mi SSE 5.8 mph - N/A   Clear
4:35 AM 59.0 °F 57.2 °F 94% 30.00 in 10.0 mi SSE 5.8 mph - N/A   Clear
4:55 AM 59.0 °F 57.2 °F 94% 30.00 in 7.0 mi SSE 4.6 mph - N/A   Scattered Clouds
5:15 AM 59.0 °F 59.0 °F 100% 30.00 in 7.0 mi SSE 4.6 mph - N/A   Overcast
5:35 AM 59.0 °F 59.0 °F 100% 30.01 in 10.0 mi South 5.8 mph - N/A   Overcast
5:55 AM 59.0 °F 59.0 °F 100% 29.99 in 10.0 mi SE 5.8 mph - N/A   Overcast
6:15 AM 59.0 °F 59.0 °F 100% 29.98 in 10.0 mi SE 6.9 mph - N/A   Overcast
6:35 AM 59.0 °F 59.0 °F 100% 29.96 in 10.0 mi SE 9.2 mph - N/A   Overcast
6:55 AM 60.8 °F 59.0 °F 94% 29.96 in 10.0 mi SE 9.2 mph - N/A   Overcast
7:15 AM 60.8 °F 60.8 °F 100% 29.97 in 10.0 mi SSE 4.6 mph - N/A   Overcast
7:35 AM 60.8 °F 60.8 °F 100% 29.96 in 10.0 mi SSE 6.9 mph - N/A   Overcast
8:15 AM 62.6 °F 60.8 °F 94% 29.95 in 10.0 mi SSE 9.2 mph 19.6 mph N/A   Overcast
8:35 AM 62.6 °F 60.8 °F 94% 29.96 in 10.0 mi SSE 13.8 mph 21.9 mph N/A   Overcast
8:55 AM 62.6 °F 60.8 °F 94% 29.95 in 10.0 mi SSE 10.4 mph 19.6 mph N/A   Overcast
9:15 AM 64.4 °F 60.8 °F 88% 29.94 in 10.0 mi SSE 10.4 mph 18.4 mph N/A   Overcast
9:35 AM 64.4 °F 60.8 °F 88% 29.93 in 10.0 mi SSE 11.5 mph 23.0 mph N/A   Overcast
9:55 AM 66.2 °F 60.8 °F 83% 29.92 in 10.0 mi South 15.0 mph 23.0 mph N/A   Mostly Cloudy
10:15 AM 66.2 °F 60.8 °F 83% 29.92 in 10.0 mi SSE 9.2 mph 25.3 mph N/A   Overcast
10:35 AM 66.2 °F 60.8 °F 83% 29.92 in 10.0 mi South 16.1 mph 25.3 mph N/A   Overcast
10:55 AM 68.0 °F 60.8 °F 78% 29.91 in 10.0 mi SSE 17.3 mph 26.5 mph N/A   Overcast
11:15 AM 69.8 °F 60.8 °F 73% 29.90 in 10.0 mi SSE 12.7 mph 20.7 mph N/A   Overcast
11:35 AM 69.8 °F 60.8 °F 73% 29.89 in 10.0 mi South 9.2 mph 20.7 mph N/A   Mostly Cloudy
11:55 AM 69.8 °F 60.8 °F 73% 29.87 in 10.0 mi SSE 12.7 mph 26.5 mph N/A   Overcast
12:15 PM 69.8 °F 60.8 °F 73% 29.86 in 10.0 mi SSE 13.8 mph 25.3 mph N/A   Overcast
12:35 PM 69.8 °F 60.8 °F 73% 29.84 in 10.0 mi SSE 10.4 mph 23.0 mph N/A   Overcast
12:55 PM 69.8 °F 60.8 °F 73% 29.82 in 10.0 mi SSE 15.0 mph 24.2 mph N/A   Overcast
1:15 PM 71.6 °F 60.8 °F 69% 29.80 in 10.0 mi SSE 13.8 mph 21.9 mph N/A   Overcast
1:35 PM 71.6 °F 60.8 °F 69% 29.78 in 10.0 mi SE 16.1 mph 26.5 mph N/A   Overcast
1:55 PM 71.6 °F 60.8 °F 69% 29.77 in 10.0 mi SSE 17.3 mph 24.2 mph N/A   Overcast
2:15 PM 71.6 °F 60.8 °F 69% 29.76 in 10.0 mi South 16.1 mph 27.6 mph N/A   Overcast
2:35 PM 71.6 °F 60.8 °F 69% 29.76 in 10.0 mi SSE 15.0 mph 25.3 mph N/A   Overcast
2:55 PM 71.6 °F 60.8 °F 69% 29.75 in 10.0 mi SSE 17.3 mph 24.2 mph N/A   Overcast
3:15 PM 71.6 °F 60.8 °F 69% 29.74 in 10.0 mi SSE 16.1 mph 27.6 mph N/A   Overcast
3:35 PM 71.6 °F 60.8 °F 69% 29.72 in 10.0 mi SSE 13.8 mph 25.3 mph N/A   Overcast
3:55 PM 71.6 °F 60.8 °F 69% 29.72 in 10.0 mi SE 19.6 mph 32.2 mph N/A   Overcast
4:15 PM 71.6 °F 60.8 °F 69% 29.70 in 10.0 mi SE 20.7 mph 27.6 mph N/A   Overcast
4:35 PM 71.6 °F 60.8 °F 69% 29.69 in 10.0 mi SSE 12.7 mph 27.6 mph N/A   Overcast
4:55 PM 71.6 °F 59.0 °F 64% 29.69 in 10.0 mi SSE 18.4 mph 25.3 mph N/A   Overcast
5:15 PM 71.6 °F 59.0 °F 64% 29.68 in 10.0 mi SE 16.1 mph 25.3 mph N/A   Overcast
5:35 PM 69.8 °F 59.0 °F 68% 29.68 in 10.0 mi SSE 13.8 mph 25.3 mph N/A   Overcast
5:55 PM 69.8 °F 59.0 °F 68% 29.67 in 10.0 mi SE 11.5 mph 20.7 mph N/A   Overcast
6:15 PM 69.8 °F 59.0 °F 68% 29.67 in 10.0 mi SSE 10.4 mph 21.9 mph N/A   Overcast
6:35 PM 69.8 °F 59.0 °F 68% 29.66 in 10.0 mi SSE 13.8 mph 21.9 mph N/A   Overcast
6:55 PM 69.8 °F 59.0 °F 68% 29.65 in 10.0 mi SSE 16.1 mph 25.3 mph N/A   Overcast
7:15 PM 69.8 °F 59.0 °F 68% 29.62 in 10.0 mi SE 18.4 mph 32.2 mph N/A   Overcast
7:35 PM 69.8 °F 59.0 °F 68% 29.62 in 10.0 mi SE 16.1 mph 25.3 mph N/A   Overcast
7:55 PM 68.0 °F 59.0 °F 73% 29.60 in 10.0 mi SE 18.4 mph 26.5 mph N/A   Overcast
8:15 PM 68.0 °F 60.8 °F 78% 29.59 in 10.0 mi SSE 17.3 mph 31.1 mph N/A   Overcast
8:35 PM 68.0 °F 60.8 °F 78% 29.56 in 10.0 mi SE 17.3 mph 32.2 mph N/A   Overcast
8:55 PM 68.0 °F 60.8 °F 78% 29.55 in 10.0 mi SE 18.4 mph 27.6 mph N/A   Overcast
9:15 PM 68.0 °F 60.8 °F 78% 29.54 in 10.0 mi SE 18.4 mph 29.9 mph N/A   Overcast
9:35 PM 69.8 °F 59.0 °F 68% 29.53 in 10.0 mi SSE 19.6 mph 34.5 mph N/A   Overcast
9:55 PM 69.8 °F 59.0 °F 68% 29.51 in 10.0 mi SSE 15.0 mph 33.4 mph N/A   Overcast
10:15 PM 69.8 °F 60.8 °F 73% 29.50 in 10.0 mi SSE 15.0 mph 33.4 mph N/A   Overcast
10:35 PM 69.8 °F 60.8 °F 73% 29.48 in 10.0 mi SSE 19.6 mph 29.9 mph N/A   Overcast
11:15 PM 69.8 °F 60.8 °F 73% 29.46 in 10.0 mi SSE 17.3 mph 32.2 mph N/A   Overcast
11:35 PM 69.8 °F 60.8 °F 73% 29.44 in 10.0 mi SE 18.4 mph 31.1 mph N/A Rain Light Rain
11:55 PM 68.0 °F 60.8 °F 78% 29.41 in 10.0 mi SSE 15.0 mph 28.8 mph N/A Rain Rain